VJC455 VVNB-VVPQ

Flight info

Callsign VJC455
Flight time N/A
Altitude 34000
Route NAH3A NAH DCT BIVIM DCT BESKI DCT KADIM DCT KAMSU DCT VILAO/N0463F340 DCT PAK DCT LEKOB DCT VIBUN DCT PNH DCT OSOTA OSOTA1F
Aircraft A21N/M-SDE2E3FGHIRWXY/LB1

Departure

Time N/A
Airport Noi Bai International Airport (VVNB)

Arrival

Time 2026-04-30 10:27
Airport Phú Quốc International Airport (VVPQ)
Time Latitude Longitude Altitude Speed Heading
2026-04-30 09:01 18.98160 106.10184 34009 ft 449 kts 185°
2026-04-30 09:02 18.91903 106.10113 34009 ft 449 kts 185°
2026-04-30 09:02 18.85652 106.10033 34009 ft 449 kts 185°
2026-04-30 09:03 18.79402 106.09953 34010 ft 449 kts 185°
2026-04-30 09:03 18.73160 106.09875 34002 ft 448 kts 184°
2026-04-30 09:04 18.66951 106.09798 34009 ft 446 kts 184°
2026-04-30 09:04 18.60779 106.09725 34001 ft 446 kts 184°
2026-04-30 09:05 18.54574 106.09655 34006 ft 446 kts 184°
2026-04-30 09:05 18.48362 106.09587 34010 ft 446 kts 184°
2026-04-30 09:06 18.42157 106.09519 34008 ft 446 kts 184°
2026-04-30 09:06 18.35928 106.09450 34006 ft 448 kts 184°
2026-04-30 09:07 18.29697 106.09380 33998 ft 448 kts 184°
2026-04-30 09:07 18.23498 106.09311 34005 ft 448 kts 184°
2026-04-30 09:08 18.17266 106.09241 34009 ft 448 kts 184°
2026-04-30 09:08 18.11021 106.09170 34015 ft 449 kts 184°
2026-04-30 09:09 18.04776 106.09100 34009 ft 448 kts 184°
2026-04-30 09:09 17.98582 106.09029 34008 ft 448 kts 184°
2026-04-30 09:10 17.92339 106.08958 34010 ft 448 kts 184°
2026-04-30 09:10 17.86107 106.08889 34006 ft 448 kts 184°
2026-04-30 09:11 17.79868 106.08819 33999 ft 448 kts 184°
2026-04-30 09:11 17.73635 106.08748 34004 ft 449 kts 184°
2026-04-30 09:12 17.67421 106.08678 34011 ft 449 kts 184°
2026-04-30 09:12 17.61173 106.08608 34005 ft 449 kts 184°
2026-04-30 09:13 17.54917 106.08538 34012 ft 449 kts 184°
2026-04-30 09:13 17.48661 106.08468 34006 ft 449 kts 184°
2026-04-30 09:14 17.42414 106.08397 33996 ft 449 kts 184°
2026-04-30 09:14 17.36189 106.08233 34002 ft 449 kts 189°
2026-04-30 09:15 17.30019 106.07287 34002 ft 448 kts 192°
2026-04-30 09:15 17.23854 106.06277 33989 ft 448 kts 192°
2026-04-30 09:16 17.17691 106.05284 33979 ft 448 kts 191°
2026-04-30 09:16 17.11520 106.04293 33982 ft 448 kts 191°
2026-04-30 09:17 17.05342 106.03307 33962 ft 451 kts 191°
2026-04-30 09:17 16.99171 106.02318 33967 ft 452 kts 191°
2026-04-30 09:18 16.92961 106.01324 33962 ft 452 kts 191°
2026-04-30 09:18 16.86743 106.00329 33961 ft 452 kts 191°
2026-04-30 09:19 16.80535 105.99335 33960 ft 452 kts 192°
2026-04-30 09:19 16.74355 105.98348 33943 ft 452 kts 192°
2026-04-30 09:20 16.68141 105.97353 33945 ft 451 kts 192°
2026-04-30 09:20 16.61934 105.96361 33949 ft 452 kts 192°
2026-04-30 09:21 16.55720 105.95369 33940 ft 451 kts 192°
2026-04-30 09:21 16.49513 105.94380 33938 ft 452 kts 192°
2026-04-30 09:22 16.43340 105.93397 33932 ft 452 kts 192°
2026-04-30 09:22 16.37114 105.92403 33922 ft 454 kts 192°
2026-04-30 09:23 16.30860 105.91409 33924 ft 454 kts 192°
2026-04-30 09:23 16.24612 105.90417 33916 ft 455 kts 192°
2026-04-30 09:24 16.18355 105.89421 33917 ft 454 kts 192°
2026-04-30 09:24 16.12109 105.88428 33908 ft 454 kts 192°
2026-04-30 09:25 16.05882 105.87438 33904 ft 458 kts 191°
2026-04-30 09:25 15.99570 105.86436 33905 ft 459 kts 191°
2026-04-30 09:26 15.93259 105.85437 33910 ft 459 kts 191°
2026-04-30 09:26 15.86941 105.84437 33899 ft 459 kts 191°
2026-04-30 09:27 15.80631 105.83436 33901 ft 459 kts 191°
2026-04-30 09:27 15.74353 105.82442 33890 ft 459 kts 191°
2026-04-30 09:28 15.68042 105.81445 33891 ft 459 kts 191°
2026-04-30 09:28 15.61721 105.80444 33890 ft 459 kts 191°
2026-04-30 09:29 15.55408 105.79447 33896 ft 459 kts 191°
2026-04-30 09:29 15.49129 105.78454 33897 ft 459 kts 191°
2026-04-30 09:30 15.42815 105.77458 33886 ft 459 kts 191°
2026-04-30 09:30 15.36494 105.76462 33889 ft 459 kts 191°
2026-04-30 09:31 15.30170 105.75467 33888 ft 459 kts 191°
2026-04-30 09:31 15.23854 105.74472 33890 ft 459 kts 191°
2026-04-30 09:32 15.17591 105.73387 33882 ft 459 kts 193°
2026-04-30 09:32 15.11335 105.72097 33877 ft 459 kts 193°
2026-04-30 09:33 15.05068 105.70808 33877 ft 460 kts 193°
2026-04-30 09:33 14.98796 105.69523 33884 ft 460 kts 193°
2026-04-30 09:34 14.92513 105.68235 33873 ft 460 kts 193°
2026-04-30 09:34 14.86238 105.66950 33865 ft 460 kts 193°
2026-04-30 09:35 14.79995 105.65671 33868 ft 460 kts 193°
2026-04-30 09:35 14.73717 105.64386 33878 ft 460 kts 193°
2026-04-30 09:36 14.67406 105.63096 33872 ft 464 kts 194°
2026-04-30 09:36 14.61068 105.61801 33859 ft 464 kts 194°
2026-04-30 09:37 14.54736 105.60508 33863 ft 464 kts 194°
2026-04-30 09:37 14.48436 105.59221 33863 ft 464 kts 194°
2026-04-30 09:38 14.42101 105.57931 33876 ft 464 kts 194°
2026-04-30 09:38 14.35752 105.56634 33858 ft 466 kts 193°
2026-04-30 09:39 14.29399 105.55339 33862 ft 466 kts 193°
2026-04-30 09:39 14.23034 105.54043 33851 ft 466 kts 193°
2026-04-30 09:40 14.16721 105.52758 33854 ft 466 kts 193°
2026-04-30 09:40 14.10389 105.51336 33849 ft 465 kts 196°
2026-04-30 09:41 14.04124 105.49659 33853 ft 465 kts 197°
2026-04-30 09:41 13.97862 105.47988 33849 ft 465 kts 197°
2026-04-30 09:42 13.91630 105.46337 33840 ft 465 kts 197°
2026-04-30 09:42 13.85362 105.44677 33841 ft 465 kts 197°
2026-04-30 09:43 13.79086 105.43015 33844 ft 465 kts 197°
2026-04-30 09:43 13.72818 105.41366 33842 ft 465 kts 197°
2026-04-30 09:44 13.66558 105.39721 33840 ft 463 kts 196°
2026-04-30 09:44 13.60361 105.38090 33834 ft 463 kts 195°
2026-04-30 09:45 13.54114 105.36449 33838 ft 463 kts 196°
2026-04-30 09:45 13.47876 105.34809 33835 ft 463 kts 196°
2026-04-30 09:46 13.41628 105.33168 33832 ft 463 kts 195°
2026-04-30 09:46 13.35379 105.31529 33829 ft 464 kts 196°
2026-04-30 09:47 13.29161 105.29897 33832 ft 465 kts 196°
2026-04-30 09:47 13.22890 105.28254 33828 ft 465 kts 196°
2026-04-30 09:48 13.16622 105.26614 33827 ft 465 kts 196°
2026-04-30 09:48 13.10343 105.24967 33830 ft 465 kts 196°
2026-04-30 09:49 13.04098 105.23331 33822 ft 465 kts 196°
2026-04-30 09:49 12.97808 105.21686 33826 ft 467 kts 196°
2026-04-30 09:50 12.91502 105.20037 33825 ft 467 kts 196°
2026-04-30 09:50 12.85270 105.18409 33817 ft 458 kts 196°
2026-04-30 09:51 12.79096 105.16796 33823 ft 457 kts 196°
2026-04-30 09:51 12.72977 105.15199 33820 ft 457 kts 196°
2026-04-30 09:52 12.66811 105.13591 33819 ft 456 kts 196°
2026-04-30 09:52 12.60650 105.11983 33820 ft 456 kts 196°
2026-04-30 09:53 12.55536 105.10650 33817 ft 456 kts 196°
2026-04-30 09:53 12.48348 105.08774 33818 ft 457 kts 196°
2026-04-30 09:54 12.43225 105.07441 33812 ft 457 kts 196°
2026-04-30 09:54 12.37058 105.05836 33815 ft 457 kts 196°
2026-04-30 09:55 12.30895 105.04233 33812 ft 457 kts 196°
2026-04-30 09:55 12.24732 105.02630 33810 ft 457 kts 196°
2026-04-30 09:56 12.18599 105.01038 33818 ft 457 kts 196°
2026-04-30 09:56 12.12443 104.99439 33810 ft 456 kts 196°
2026-04-30 09:57 12.09382 104.98644 33468 ft 454 kts 196°
2026-04-30 09:57 12.06323 104.97850 33178 ft 453 kts 196°
2026-04-30 09:57 12.03275 104.97059 32916 ft 451 kts 196°
2026-04-30 09:57 12.00241 104.96271 32665 ft 449 kts 196°
2026-04-30 09:58 11.97215 104.95485 32415 ft 447 kts 195°
2026-04-30 09:58 11.94207 104.94705 32162 ft 445 kts 195°
2026-04-30 09:58 11.91207 104.93927 31930 ft 443 kts 195°
2026-04-30 09:58 11.88260 104.93163 31690 ft 441 kts 195°
2026-04-30 09:59 11.82333 104.91625 31220 ft 437 kts 195°
2026-04-30 09:59 11.76455 104.90104 30755 ft 433 kts 195°
2026-04-30 10:00 11.70642 104.88599 30295 ft 429 kts 195°
2026-04-30 10:00 11.67758 104.87852 30069 ft 426 kts 195°
2026-04-30 10:01 11.62064 104.86376 29446 ft 422 kts 195°
2026-04-30 10:01 11.59230 104.85641 28888 ft 419 kts 195°
2026-04-30 10:01 11.56415 104.84907 28320 ft 416 kts 197°
2026-04-30 10:02 11.51170 104.82571 27230 ft 409 kts 210°
2026-04-30 10:02 11.48716 104.81114 26679 ft 407 kts 211°
2026-04-30 10:02 11.46276 104.79654 26127 ft 406 kts 211°
2026-04-30 10:02 11.43840 104.78208 25596 ft 404 kts 211°
2026-04-30 10:03 11.41412 104.76776 25076 ft 402 kts 211°
2026-04-30 10:03 11.38991 104.75353 24533 ft 401 kts 210°
2026-04-30 10:03 11.36583 104.73941 23995 ft 398 kts 210°
2026-04-30 10:03 11.34187 104.72535 23469 ft 395 kts 210°
2026-04-30 10:04 11.31813 104.71142 22847 ft 392 kts 210°
2026-04-30 10:04 11.29484 104.69776 22297 ft 389 kts 210°
2026-04-30 10:04 11.27146 104.68405 21746 ft 385 kts 210°
2026-04-30 10:04 11.24834 104.67051 21202 ft 382 kts 210°
2026-04-30 10:05 11.22541 104.65709 20681 ft 378 kts 209°
2026-04-30 10:05 11.20271 104.64380 20192 ft 374 kts 209°
2026-04-30 10:05 11.18023 104.63065 19710 ft 371 kts 209°
2026-04-30 10:05 11.15798 104.61763 19243 ft 367 kts 209°
2026-04-30 10:06 11.13596 104.60475 18795 ft 363 kts 209°
2026-04-30 10:06 11.11419 104.59201 18363 ft 359 kts 208°
2026-04-30 10:06 11.09266 104.57941 17888 ft 355 kts 208°
2026-04-30 10:06 11.07129 104.56690 17411 ft 354 kts 208°
2026-04-30 10:07 11.04995 104.55441 16969 ft 354 kts 208°
2026-04-30 10:07 11.02858 104.54192 16531 ft 353 kts 208°
2026-04-30 10:07 11.00728 104.52946 16107 ft 353 kts 208°
2026-04-30 10:07 10.98622 104.51716 15691 ft 354 kts 208°
2026-04-30 10:08 10.96456 104.50450 15261 ft 355 kts 208°
2026-04-30 10:08 10.94343 104.49214 14859 ft 355 kts 208°
2026-04-30 10:08 10.92165 104.47940 14422 ft 357 kts 208°
2026-04-30 10:08 10.90029 104.46691 13984 ft 359 kts 208°
2026-04-30 10:09 10.87864 104.45427 13519 ft 357 kts 208°
2026-04-30 10:09 10.85727 104.44179 13042 ft 352 kts 208°
2026-04-30 10:09 10.83618 104.42946 12608 ft 347 kts 208°
2026-04-30 10:09 10.81539 104.41732 12180 ft 341 kts 208°
2026-04-30 10:10 10.79500 104.40541 11751 ft 336 kts 208°
2026-04-30 10:10 10.77478 104.39361 11312 ft 332 kts 208°
2026-04-30 10:10 10.75484 104.38200 10889 ft 328 kts 208°
2026-04-30 10:10 10.73519 104.37053 10516 ft 323 kts 208°
2026-04-30 10:11 10.71598 104.35932 10251 ft 314 kts 208°
2026-04-30 10:11 10.69734 104.34845 10032 ft 304 kts 208°
2026-04-30 10:11 10.67905 104.33777 9769 ft 303 kts 208°
2026-04-30 10:11 10.66079 104.32712 9406 ft 303 kts 208°
2026-04-30 10:12 10.64248 104.31644 9007 ft 304 kts 208°
2026-04-30 10:12 10.62421 104.30579 8617 ft 301 kts 208°
2026-04-30 10:12 10.60636 104.29537 8220 ft 298 kts 208°
2026-04-30 10:12 10.58849 104.28495 7839 ft 295 kts 207°
2026-04-30 10:13 10.57065 104.27456 7477 ft 295 kts 207°
2026-04-30 10:13 10.55382 104.26302 7208 ft 289 kts 221°
2026-04-30 10:13 10.54174 104.24711 7037 ft 280 kts 238°
2026-04-30 10:13 10.53241 104.23024 6898 ft 268 kts 240°
2026-04-30 10:14 10.52362 104.21394 6763 ft 257 kts 240°
2026-04-30 10:14 10.51512 104.19835 6632 ft 249 kts 240°
2026-04-30 10:14 10.49817 104.16765 6390 ft 248 kts 239°
2026-04-30 10:15 10.48969 104.15241 6265 ft 248 kts 239°
2026-04-30 10:15 10.48131 104.13737 6144 ft 248 kts 239°
2026-04-30 10:15 10.47276 104.12202 6019 ft 247 kts 239°
2026-04-30 10:15 10.46438 104.10699 5897 ft 246 kts 239°
2026-04-30 10:16 10.45616 104.09227 5768 ft 231 kts 239°
2026-04-30 10:16 10.44845 104.07844 5712 ft 223 kts 239°
2026-04-30 10:16 10.44079 104.06475 5621 ft 223 kts 239°
2026-04-30 10:17 10.42554 104.03749 5369 ft 222 kts 239°
2026-04-30 10:17 10.41032 104.01028 5124 ft 222 kts 239°
2026-04-30 10:17 10.40274 103.99671 5000 ft 220 kts 239°
2026-04-30 10:18 10.39514 103.98314 4978 ft 222 kts 239°
2026-04-30 10:18 10.38760 103.96966 4989 ft 222 kts 239°
2026-04-30 10:18 10.37997 103.95604 5001 ft 221 kts 239°
2026-04-30 10:19 10.36513 103.92951 4998 ft 211 kts 239°
2026-04-30 10:19 10.35792 103.91663 5005 ft 208 kts 239°
2026-04-30 10:19 10.35074 103.90380 5010 ft 209 kts 239°
2026-04-30 10:19 10.34351 103.89092 5011 ft 209 kts 239°
2026-04-30 10:20 10.33640 103.87802 5010 ft 210 kts 240°
2026-04-30 10:20 10.32220 103.85221 5013 ft 210 kts 239°
2026-04-30 10:20 10.31501 103.83929 5011 ft 211 kts 239°
2026-04-30 10:21 10.30745 103.82655 5005 ft 210 kts 231°
2026-04-30 10:21 10.29577 103.81848 4888 ft 203 kts 190°
2026-04-30 10:21 10.28192 103.81763 4599 ft 198 kts 177°
2026-04-30 10:21 10.26815 103.81706 4235 ft 198 kts 180°
2026-04-30 10:22 10.25461 103.81606 3899 ft 196 kts 180°
2026-04-30 10:22 10.24106 103.81486 3564 ft 195 kts 181°
2026-04-30 10:22 10.22756 103.81357 3234 ft 195 kts 181°
2026-04-30 10:22 10.21408 103.81230 2902 ft 194 kts 180°
2026-04-30 10:23 10.20095 103.81399 2627 ft 190 kts 155°
2026-04-30 10:23 10.19037 103.82168 2587 ft 187 kts 128°
2026-04-30 10:23 10.18523 103.83345 2590 ft 183 kts 101°
2026-04-30 10:23 10.18404 103.84622 2461 ft 182 kts 90°
2026-04-30 10:24 10.18300 103.85900 2244 ft 178 kts 94°
2026-04-30 10:24 10.18186 103.87101 2041 ft 164 kts 95°
2026-04-30 10:24 10.18080 103.88193 1840 ft 144 kts 95°
2026-04-30 10:24 10.17983 103.89180 1633 ft 139 kts 95°
2026-04-30 10:25 10.17888 103.90145 1447 ft 138 kts 96°
2026-04-30 10:25 10.17792 103.91129 1271 ft 139 kts 96°
2026-04-30 10:25 10.17696 103.92095 1097 ft 139 kts 96°
2026-04-30 10:25 10.17600 103.93070 936 ft 139 kts 96°
2026-04-30 10:26 10.17505 103.94051 779 ft 140 kts 97°
2026-04-30 10:26 10.17416 103.95040 606 ft 141 kts 98°
2026-04-30 10:26 10.17312 103.96032 430 ft 142 kts 98°
2026-04-30 10:26 10.17225 103.97044 241 ft 145 kts 98°
2026-04-30 10:27 10.17113 103.98053 50 ft 143 kts 99°
2026-04-30 10:27 10.17017 103.98974 32 ft 109 kts 96°
2026-04-30 10:27 10.16962 103.99540 32 ft 52 kts 96°
2026-04-30 10:27 10.16935 103.99804 33 ft 26 kts 96°
2026-04-30 10:28 10.16885 103.99951 33 ft 13 kts 120°
2026-04-30 10:28 10.16854 104.00001 33 ft 6 kts 122°
2026-04-30 10:28 10.16826 104.00043 33 ft 8 kts 125°
2026-04-30 10:28 10.16796 104.00083 33 ft 5 kts 127°
2026-04-30 10:29 10.16764 104.00103 33 ft 7 kts 181°
2026-04-30 10:29 10.16738 104.00059 33 ft 9 kts 268°
2026-04-30 10:29 10.16744 103.99996 33 ft 8 kts 275°
2026-04-30 10:29 10.16749 103.99941 33 ft 4 kts 274°
2026-04-30 10:30 10.16752 103.99903 33 ft 6 kts 268°
2026-04-30 10:30 10.16724 103.99863 32 ft 8 kts 204°
2026-04-30 10:30 10.16659 103.99853 32 ft 11 kts 186°
2026-04-30 10:30 10.16582 103.99845 32 ft 11 kts 185°
2026-04-30 10:31 10.16533 103.99845 32 ft 6 kts 163°
2026-04-30 10:31 10.16487 103.99852 33 ft 7 kts 187°
2026-04-30 10:31 10.16450 103.99848 33 ft 5 kts 186°
2026-04-30 10:31 10.16430 103.99846 33 ft 0 kts 187°
2026-04-30 10:32 10.16425 103.99845 33 ft 1 kts 187°
2026-04-30 10:32 10.16424 103.99845 33 ft 0 kts 187°